Content
SEND FEEDBACK

Daily
Averages
Monthly
Summary
United States of America

WOLCOTT, NEW YORK


Home > North America > United States > New York
Elevation: 370 feet     Latitude: 43 13N     Longitude: 076 49W

WEATHER
 
SELECT A DAY
Number of Records: 213,836;   Date Range: 5/22/97 - 10/23/14
 
SHARE

PRINT THIS DATA

[ ← Previous Day ]
WEATHER ALMANAC - JANUARY 3, 2013
[ Next Day → ]
[ °C ]   °F
Weather ElementAverageHighLow
Temperature14.5 °F28.9 °F (8:54 pm)-2 °F (3:54 am)
Dewpoint9.2 °F23 °F (8:54 pm)-8 °F (4:54 am)
Humidity79.7 %93 % (7:39 pm)69 % (4:54 am)
Barometer30.05 in30.25 in (1:54 am)29.96 in (7:39 pm)
Wind Speed4.1 mph16.1 mph (9:54 pm)
Weather ElementAverage
Visibility4.6 mi
Wind DirectionE (94.9 °)

Weather ElementTotal
Precipitation---
Heating Degree Days51.6 (Base 65)
Averaged from 39 records on January 3, 2013
WEATHER CONDITIONS BREAKOUT
WIND DIRECTION BREAKOUT
WEATHER BY HOUR - JANUARY 3, 2013
[ °C ]   °F
Local TimeTemperatureDewpointHumidityBarometerVisibilityWind DirectionWind SpeedGust SpeedPrecipitationEventsConditions
1:54 AM-0.9 °F-6.0 °F79 %30.25 in10.0 miCalmMostly Cloudy
2:54 AM0.0 °F-6.0 °F76 %30.24 in10.0 miCalmOvercast
3:54 AM-2.0 °F-7.1 °F79 %30.23 in10.0 miEast (80°)3.5 mphOvercast
4:54 AM0.0 °F-8.0 °F69 %30.22 in10.0 miCalmOvercast
5:54 AM0.0 °F-7.1 °F72 %30.21 in10.0 miVariable3.5 mphOvercast
7:54 AM1.9 °F-2.9 °F80 %30.19 in3.0 miESE (120°)3.5 mph0.00 inSnowLight Snow
8:05 AM3.2 °F-2.2 °F78 %30.15 in2.0 miESE (120°)3.5 mph0.00 inSnowLight Snow
8:29 AM3.2 °F-2.2 °F78 %30.15 in3.0 miESE (120°)4.6 mph0.00 inSnowLight Snow
8:54 AM3.9 °F-0.9 °F80 %30.18 in3.0 miESE (120°)4.6 mph0.00 inSnowLight Snow
9:54 AM7.0 °F1.0 °F77 %30.17 in3.0 miSE (130°)4.6 mph0.00 inSnowLight Snow
10:54 AM9.0 °F3.0 °F77 %30.15 in4.0 miESE (120°)4.6 mph0.00 inSnowLight Snow
11:54 AM12.9 °F6.1 °F74 %30.11 in5.0 miSE (130°)4.6 mph0.00 inSnowLight Snow
12:54 PM14.0 °F8.1 °F77 %30.06 in10.0 miSSE (150°)3.5 mph0.00 inOvercast
1:27 PM15.8 °F10.4 °F79 %30.02 in2.5 miCalm0.00 inSnowLight Snow
1:37 PM15.8 °F8.6 °F73 %30.01 in4.0 miSE (130°)3.5 mph0.00 inSnowLight Snow
1:47 PM15.8 °F10.4 °F79 %30.01 in2.0 miSSE (150°)3.5 mph0.00 inSnowLight Snow
1:52 PM15.8 °F10.4 °F79 %30.00 in1.8 miCalm0.00 inSnowLight Snow
1:54 PM16.0 °F10.0 °F77 %30.04 in1.5 miCalm0.00 inSnowLight Snow
2:03 PM15.8 °F10.4 °F79 %30.00 in1.0 miCalm0.00 inSnowLight Snow
2:27 PM15.8 °F10.4 °F79 %29.99 in2.0 miVariable3.5 mph0.00 inSnowLight Snow
2:44 PM17.6 °F12.2 °F79 %29.99 in2.5 miSE (130°)3.5 mph0.00 inSnowLight Snow
2:47 PM17.6 °F12.2 °F79 %29.99 in1.8 miVariable3.5 mph0.00 inSnowLight Snow
2:54 PM17.1 °F12.9 °F84 %30.02 in1.0 miVariable4.6 mph0.00 inSnowLight Snow
3:05 PM17.6 °F12.2 °F79 %29.99 in1.5 miSE (130°)4.6 mph0.00 inSnowLight Snow
3:16 PM17.6 °F12.2 °F79 %29.98 in2.5 miSE (130°)5.8 mph0.00 inSnowLight Snow
3:54 PM18.0 °F12.9 °F81 %30.01 in10.0 miSE (140°)4.6 mph0.00 inOvercast
4:54 PM18.0 °F14.0 °F84 %30.01 in4.0 miCalm0.00 inSnowLight Snow
5:54 PM19.0 °F15.1 °F85 %30.00 in3.0 miSE (130°)3.5 mph0.00 inSnowLight Snow
6:18 PM19.4 °F15.8 °F86 %29.97 in2.5 miSE (130°)3.5 mph0.00 inSnowLight Snow
6:39 PM19.4 °F15.8 °F86 %29.97 in2.5 miCalm0.00 inSnowLight Snow
6:47 PM19.4 °F15.8 °F86 %29.97 in3.0 miCalm0.00 inSnowLight Snow
6:54 PM19.9 °F16.0 °F85 %30.00 in4.0 miCalm0.00 inSnowLight Snow
7:39 PM19.4 °F17.6 °F93 %29.96 in2.5 miSouth (170°)5.8 mph0.00 inSnowLight Snow
7:52 PM23.0 °F19.4 °F86 %29.96 in3.0 miSSW (200°)5.8 mph0.00 inSnowLight Snow
7:54 PM23.0 °F19.0 °F85 %29.99 in4.0 miSSW (200°)5.8 mph0.00 inSnowLight Snow
8:54 PM28.9 °F23.0 °F78 %29.98 in8.0 miWSW (240°)15.0 mph0.00 inOvercast
9:54 PM28.9 °F23.0 °F78 %29.98 in10.0 miWSW (250°)16.1 mph0.00 inOvercast
10:54 PM28.9 °F23.0 °F78 %29.99 in9.0 miWSW (240°)13.8 mphOvercast
11:54 PM28.9 °F21.9 °F75 %29.98 in6.0 miWSW (240°)12.7 mph0.00 inSnowLight Snow
Hourly data recorded from KFZY, located miles away from Wolcott, New York







STORIES FROM OUR PARTNERS